STARLINK-4512, 53398

Orbit data source: Space-Track

STARLINK-4512, 53398 is a payload satellite owned by SpaceX/Seattle (US) in LEO that was launched on Wed, 10 Aug 2022 UTC via an FALCON 9 launch vehicle from the Air Force Eastern Test Range (AFETR). Payload-class satellites include a variety of spacecraft equipped with specific instruments for various scientific and technological missions. These include communications satellites like Starlink; space stations such as the ISS; scientific satellites like the Hubble; Earth observation satellites from companies like Planet Labs, Umbra, and HawkEye 360; GPS; miniature CubeSats for education and research; and military/defense satellites.

Loading next visibility...
Identifier
53398, 2022-097L
Orbit
LEO
Country
Flag of USUS
Related business
Manufacturer
SpaceX/Seattle
Mission
Operational Commercial Communications
Bus & Motor
STARLINK, Unknown motor
Mass
297 kg wet, ~275 kg dry
Launch date (UTC)
2022-08-10 (4 years ago)
Launch vehicle
FALCON 9
Launch site
Air Force Eastern Test Range (AFETR)
Object type
Payload
Rocket body
Debris
Shape & HBR
Box + 1 Pan, 10.1 m
Radar Cross Section
13.562 m², Large (>1 m²)

Expand to show TLE details & history
Last TLE update: 1 day ago

TLE from 1 day ago
0 STARLINK-4512
1 53398U 22097L   26143.99422649 -.00000601  00000-0 -19674-4 0  9999
2 53398  53.2160 146.0668 0000984  82.4871 277.6233 15.08840855209880
Epoch: 2026-05-23T23:51Z
TLE epoch observation values (Epoch: 2026-05-23T23:51:41.168Z)
Latitude
-0.00003°
Longitude
-93.4575°
Altitude
540.548 km
Speed
7.593 km/s
True Right ascension
09h 44m 16s
True Declination
0° 00' 00"
Sunlit
Object was in daylight at epoch
Visualization orbit readout
Latitude
Unknown
Longitude
Unknown
Altitude
Unknown
Speed
Unknown
Apparent Right ascension
Unknown
Apparent Declination
Unknown
Sunlit
N/A
Visualization observer readout
Local Sidereal Time
09:25:11
Azimuth
Unknown
Elevation
Unknown
Doppler factor
Unknown
Orbital elements
Apogee altitude
540.667 km
Perigee altitude
539.305 km
Semi-major axis
6,918.123 km
Eccentricity
0.0001
Inclination
53.216°
RAAN
146.0668°
Arg. of periapsis
82.4871°
True anomaly
277.61212°
Mean anomaly
277.6233°
Eccentric anomaly
277.61771°
Mean motion
3.77191 °/min
Orbital period
95.44 mins
BSTAR
-0.000019674
Loading maneuver chart data...
Computing Atmospheric mass density...
Loading historical data...
Loading historical data...
Loading historical data...
Loading historical data...
Loading historical data...
Loading historical data...
Loading historical data...

Documentation

Showing up to 5 results
|